User: anonymous   Login
Location: Unspecified
(0.0000°N, 0.0000°E)
Time: 07:23:31
(UTC+00:00)
Language:

ELEKTRO-L - Orbit

View from above orbital plane
View from above orbital plane
View from above satellite
View from above satellite

Ground track
Ground track

The orbit data is extracted from the following two-line orbital elements,

1 37344U 11001A   15087.03406072 -.00000126  00000-0  10000-3 0  9991
2 37344 000.8113 080.8600 0002069 190.5141 002.1362 01.00272927 15365
Epoch (UTC): 28 March 2015 00:49:02
Eccentricity: 0.0002069
inclination: 0.8113°
perigee height: 35777 km
apogee height: 35794 km
right ascension of ascending node: 80.8600°
argument of perigee: 190.5141°
revolutions per day: 1.00272927
mean anomaly at epoch: 2.1362°
orbit number at epoch: 1536

The dashed part of the orbit path shows where the satellite is in the earth's shadow,  

DLR